Home > Weather > Bamenda > Past weeks

Flag for Cameroon Weather for the Past 2 Weeks in Bamenda, Cameroon

Now
88 °F

Scattered clouds.


Feels Like: 100 °F
Forecast: 46 / 89 °F
Wind: 12 mph from West

Location: Douala Obs.

Current Time: Feb 13, 2016 at 5:35:31 PM

Latest Report: Feb 13, 2016 at 5:00 PM


Visibility: 2 mi

Pressure: 29.77 "Hg (25.90 "Hg at 1240m altitude)

Humidity: 70%

Dew point: 77 °F

Location of BamendaLocation

Historic Weather in Bamenda — Graph

°F

Bamenda Temperature Yesterday

Maximum temperature yesterday: 91 °F (at 1:00 PM)
Minimum temperature yesterday: 77 °F (at 7:00 AM)
Average temperature yesterday: 84 °F

High & Low Weather Summary for the Past Weeks

 TemperatureHumidityPressure
High95 °F (Jan 30, 3:00 PM)100% (Feb 1, 8:00 AM)29.95 "Hg (Feb 1, 8:00 AM)
Low73 °F (Jan 30, 7:00 AM)34% (Jan 30, 2:00 PM)29.71 "Hg (Feb 2, 4:00 PM)
Average84 °F79%29.84 "Hg
* Reported Jan 29 4:00 PM — Feb 13 4:00 PM, Bamenda, Weather by CustomWeather, © 2016

Note: Actual official high and low records may vary slightly from our data, if they occured in-between our weather recording intervals... More about our weather records

Advertising

Bamenda Weather History for the Previous 24 Hours

 ConditionsComfort  
Time TempWeatherWind HumidityBarometerVisibility
4:00 PM
Sat, Feb 13
90 °FScattered clouds.10 mph63%29.77 "Hg2 mi
3:00 PM88 °FPartly sunny.10 mph66%29.77 "Hg2 mi
2:00 PM90 °FPartly sunny.7 mph63%29.80 "Hg1 mi
1:00 PM90 °FPartly sunny.8 mph67%29.83 "Hg2 mi
12:00 PM90 °FPartly sunny.2 mph67%29.86 "Hg1 mi
11:00 AM88 °FPartly sunny.No wind70%29.86 "Hg1 mi
10:00 AM84 °FScattered clouds.1 mph84%29.89 "Hg1 mi
9:00 AM81 °FFog.5 mph89%29.89 "Hg1 mi
8:00 AM79 °FFog.1 mph100%29.89 "Hg1 mi
7:00 AM79 °FFog.1 mph94%29.83 "Hg1 mi
6:00 AM79 °FFog.No wind94%29.83 "Hg1 mi
5:00 AM79 °FFog.No wind94%29.80 "Hg1 mi
4:00 AM81 °FFog.3 mph94%29.83 "Hg2 mi
3:00 AM81 °FFog.2 mph94%29.80 "Hg2 mi
2:00 AM81 °FFog.2 mph94%29.83 "Hg2 mi
1:00 AM81 °FFog.2 mph94%29.86 "Hg2 mi
12:00 AM82 °FFog.3 mph89%29.86 "Hg2 mi
11:00 PM
Fri, Feb 12
82 °FFog.3 mph89%29.86 "Hg2 mi
10:00 PM82 °FFog.2 mph89%29.86 "Hg2 mi
9:00 PM84 °FPassing clouds.3 mph84%29.86 "Hg3 mi
8:00 PM84 °FPassing clouds.3 mph79%29.83 "Hg3 mi
7:00 PM84 °FPassing clouds.5 mph79%29.83 "Hg2 mi
6:00 PM86 °FScattered clouds.7 mph75%29.80 "Hg1 mi
5:00 PM86 °FScattered clouds.8 mph75%29.80 "Hg1 mi
Weather by CustomWeather, © 2016

See weather overviewHow to use our weather pages